Location: Waco, TX
(31.5480°N, 97.1670°W)
Time: 12:20:52
(UTC-05:00)

ISS - Pass Details

Date: 06 May 2021
Orbit: 417 x 422 km, 51.6° (Epoch: 15 May)

Event Time Altitude Azimuth Distance (km) Brightness Sun altitude
Rises 23:25:48 0° 180° (S) 2,341 - -33.7°
Reaches altitude 10° 23:29:13 10° 142° (SE) 1,485 - -34.1°
Maximum altitude 23:30:11 11° 125° (SE) 1,428 - -34.3°
Drops below altitude 10° 23:31:10 10° 108° (ESE) 1,489 - -34.4°
Sets 23:34:36 0° 71° (ENE) 2,358 - -34.8°
